Hourly Data Report for February 19, 2019

TORONTO INTL A
ONTARIO
Current Station Operator: NAVCAN

43°40'36.000" N
79°37'50.000" W
173.40 m
6158731
71624
YYZ

Download Data

Hourly Data (February 2019)
Hourly Data Report for February 19, 2019
TIME
LST
Temp Definition
°C
Dew Point Definition
°C
Rel Hum Definition
%
Precip. Amount Definition
mm

Wind Dir Definition
10's deg

Wind Spd Definition
km/h
Visibility Definition
km
Stn Press Definition
kPa
Hmdx Definition


Wind Chill Definition


Weather Definition


00:00 -13.4 -18.8 64   28 12 24.1 101.13   -20 LegendNANA
01:00 -14.0 -19.2 65   28 12 24.1 101.21   -21 Clear
02:00 -13.9 -19.0 66   26 10 24.1 101.26   -20 LegendNANA
03:00 -14.7 -19.6 67   24 8 24.1 101.30   -20 LegendNANA
04:00 -14.4 -19.0 68   28 11 24.1 101.32   -21 Mostly Cloudy
05:00 -13.1 -17.8 69   27 7 24.1 101.34   -18 LegendNANA
06:00 -12.1 -16.8 69   25 4 24.1 101.43   -15 Snow
07:00 -11.1 -15.7 69   25 11 24.1 101.48   -17 Mostly Cloudy
08:00 -10.4 -15.0 70   24 8 19.3 101.53   -15 Snow Showers
09:00 -9.5 -14.1 70   25 10 19.3 101.60   -15 Snow Showers
10:00 -7.3 -12.2 68   26 15 24.1 101.63   -13 Mostly Cloudy
11:00 -5.7 -11.3 65   27 22 24.1 101.63   -13 LegendNANA
12:00 -5.1 -11.2 62   29 17 24.1 101.65   -11 LegendNANA
13:00 -4.6 -11.2 60   26 19 24.1 101.60   -11 Snow Showers
14:00 -4.4 -11.3 59   26 21 24.1 101.54   -11 LegendNANA
15:00 -4.5 -11.8 57   29 24 24.1 101.49   -12 LegendNANA
16:00 -4.7 -12.2 56   28 19 24.1 101.47   -11 Mostly Cloudy
17:00 -5.2 -12.6 56   28 19 24.1 101.43   -12 LegendNANA
18:00 -6.4 -13.0 60   25 13 24.1 101.47   -12 LegendNANA
19:00 -6.1 -12.3 62   29 9 24.1 101.46   -10 Mainly Clear
20:00 -7.2 -13.2 63   31 10 24.1 101.41   -12 LegendNANA
21:00 -8.7 -14.1 65   28 6 24.1 101.35   -12 LegendNANA
22:00 -8.7 -13.9 66   26 6 24.1 101.34   -12 Mainly Clear
23:00 -8.1 -13.2 67   31 8 24.1 101.33   -12 LegendNANA

Notes on Data Quality.

Legend

  • E = Estimated
  • M = Missing
  • NA = Not Available*
  • [empty] = Indicates an unobserved value
Date modified: